| time (UTC) | temp F | wind direction | speed MPH | gust MPH | rain 1hr in | rain 24hr in | rain mn in | humidity % | barometer mb |
| 20260505173222 | 80 | 90 | 0.0 | 7.0 | 0.00 | 0.00 | 0.00 | 84 | 1009.9 |
| 20260505172713 | 80 | 113 | 0.0 | 7.0 | 0.00 | 0.00 | 0.00 | 84 | 1009.9 |
| 20260505172202 | 81 | 68 | 0.0 | 6.0 | 0.00 | 0.00 | 0.00 | 83 | 1010.0 |
| 20260505171653 | 80 | 293 | 1.0 | 6.0 | 0.00 | 0.00 | 0.00 | 85 | 1010.0 |
| 20260505171142 | 80 | 45 | 1.0 | 6.0 | 0.00 | 0.00 | 0.00 | 84 | 1010.0 |
| 20260505170632 | 80 | 135 | 1.0 | 4.0 | 0.00 | 0.00 | 0.00 | 84 | 1010.2 |
| 20260505170122 | 80 | 315 | 2.0 | 7.0 | 0.00 | 0.00 | 0.00 | 85 | 1010.2 |
| 20260505165613 | 80 | 0 | 0.0 | 7.0 | 0.00 | 0.00 | 0.00 | 84 | 1010.5 |
| 20260505165103 | 80 | 45 | 2.0 | 7.0 | 0.00 | 0.00 | 0.00 | 84 | 1010.7 |
| 20260505164553 | 81 | 0 | 4.0 | 7.0 | 0.00 | 0.00 | 0.00 | 84 | 1010.6 |
| 20260505164043 | 81 | 0 | 3.0 | 7.0 | 0.00 | 0.00 | 0.00 | 82 | 1010.7 |
| 20260505163533 | 81 | 315 | 2.0 | 7.0 | 0.00 | 0.00 | 0.00 | 82 | 1010.6 |
| 20260505163023 | 80 | 113 | 2.0 | 6.0 | 0.00 | 0.00 | 0.00 | 84 | 1010.9 |
| 20260505162513 | 79 | 293 | 0.0 | 4.0 | 0.00 | 0.00 | 0.00 | 85 | 1011.0 |
| 20260505162004 | 80 | 68 | 0.0 | 2.0 | 0.00 | 0.00 | 0.00 | 84 | 1010.9 |
| 20260505161453 | 81 | 45 | 0.0 | 2.0 | 0.00 | 0.00 | 0.00 | 82 | 1011.1 |
| 20260505160940 | 79 | 0 | 0.0 | 4.0 | 0.00 | 0.00 | 0.00 | 84 | 1011.0 |
| 20260505160430 | 78 | 90 | 1.0 | 6.0 | 0.00 | 0.00 | 0.00 | 87 | 1011.3 |
| 20260505153330 | 76 | 113 | 0.0 | 0.0 | 0.00 | 0.00 | 0.00 | 89 | 1011.5 |
| 20260505152311 | 76 | 135 | 0.0 | 2.0 | 0.00 | 0.00 | 0.00 | 89 | 1011.5 |
| 20260505150741 | 75 | 0 | 0.0 | 2.0 | 0.00 | 0.00 | 0.00 | 89 | 1011.7 |
| 20260505150231 | 75 | 68 | 0.0 | 6.0 | 0.00 | 0.00 | 0.00 | 91 | 1011.9 |
| 20260505140543 | 72 | 90 | 0.0 | 4.0 | 0.00 | 0.00 | 0.00 | 94 | 1012.4 |
| 20260505124807 | 72 | 293 | 0.0 | 2.0 | 0.00 | 0.00 | 0.00 | 93 | 1012.2 |
| 20260505124257 | 71 | 338 | 0.0 | 2.0 | 0.00 | 0.00 | 0.00 | 94 | 1012.2 |
| 20260505123236 | 70 | 113 | 0.0 | 2.0 | 0.00 | 0.00 | 0.00 | 96 | 1012.1 |
| 20260505122726 | 69 | 113 | 0.0 | 2.0 | 0.00 | 0.00 | 0.00 | 98 | 1012.1 |
| 20260505121707 | 69 | 45 | 0.0 | 2.0 | 0.00 | 0.00 | 0.00 | 98 | 1012.1 |
| 20260505120648 | 68 | 113 | 0.0 | 4.0 | 0.00 | 0.00 | 0.00 | 99 | 1012.0 |
| 20260505120138 | 68 | 23 | 0.0 | 4.0 | 0.00 | 0.00 | 0.00 | 99 | 1011.9 |
| 20260505114100 | 67 | 23 | 0.0 | 0.0 | 0.00 | 0.00 | 0.00 | 99 | 1011.8 |
| 20260505113550 | 67 | 45 | 0.0 | 0.0 | 0.00 | 0.00 | 0.00 | 99 | 1011.7 |
| 20260505113045 | 67 | 90 | 0.0 | 0.0 | 0.00 | 0.00 | 0.00 | 99 | 1011.6 |
| 20260505112525 | 66 | 113 | 0.0 | 0.0 | 0.00 | 0.00 | 0.00 | 99 | 1011.6 |
| 20260505112015 | 66 | 45 | 0.0 | 4.0 | 0.00 | 0.00 | 0.00 | 99 | 1011.5 |
| 20260505111514 | 66 | 113 | 0.0 | 4.0 | 0.00 | 0.00 | 0.00 | 99 | 1011.4 |
| 20260505101818 | 65 | 135 | 0.0 | 0.0 | 0.00 | 0.00 | 0.00 | 99 | 1011.1 |
| 20260505101303 | 65 | 113 | 0.0 | 0.0 | 0.00 | 0.00 | 0.00 | 99 | 1011.3 |
| 20260505100753 | 65 | 135 | 0.0 | 2.0 | 0.00 | 0.00 | 0.00 | 99 | 1011.2 |
| 20260505100245 | 65 | 113 | 0.0 | 2.0 | 0.00 | 0.00 | 0.00 | 99 | 1011.2 |
| 20260505095220 | 65 | 113 | 0.0 | 0.0 | 0.00 | 0.00 | 0.00 | 99 | 1011.1 |
| 20260505094204 | 65 | 113 | 0.0 | 0.0 | 0.00 | 0.00 | 0.00 | 99 | 1010.6 |
| 20260505093152 | 65 | 113 | 0.0 | 0.0 | 0.00 | 0.00 | 0.00 | 99 | 1010.5 |
| 20260505092635 | 65 | 113 | 0.0 | 0.0 | 0.00 | 0.00 | 0.00 | 99 | 1010.4 |
| 20260505091619 | 65 | 23 | 0.0 | 0.0 | 0.00 | 0.00 | 0.00 | 99 | 1010.6 |
| 20260505091102 | 65 | 113 | 0.0 | 0.0 | 0.00 | 0.00 | 0.00 | 99 | 1010.4 |
| 20260505090552 | 65 | 113 | 0.0 | 0.0 | 0.00 | 0.00 | 0.00 | 99 | 1010.4 |
| 20260505090046 | 65 | 113 | 0.0 | 0.0 | 0.00 | 0.00 | 0.00 | 99 | 1010.7 |
| 20260505085022 | 65 | 135 | 0.0 | 0.0 | 0.00 | 0.00 | 0.00 | 99 | 1010.5 |
| 20260505084514 | 66 | 45 | 0.0 | 2.0 | 0.00 | 0.00 | 0.00 | 99 | 1010.6 |
| 20260505083452 | 66 | 90 | 0.0 | 4.0 | 0.00 | 0.00 | 0.00 | 99 | 1010.5 |
| 20260505082435 | 66 | 68 | 0.0 | 0.0 | 0.00 | 0.00 | 0.00 | 99 | 1010.9 |
| 20260505081926 | 66 | 68 | 0.0 | 0.0 | 0.00 | 0.00 | 0.00 | 99 | 1010.5 |
| 20260505080900 | 66 | 0 | 0.0 | 0.0 | 0.00 | 0.00 | 0.00 | 99 | 1011.0 |
| 20260505080355 | 66 | 68 | 0.0 | 0.0 | 0.00 | 0.00 | 0.00 | 99 | 1010.4 |
| 20260505075843 | 66 | 68 | 0.0 | 0.0 | 0.00 | 0.00 | 0.00 | 99 | 1010.4 |
| 20260505075338 | 66 | 68 | 0.0 | 0.0 | 0.00 | 0.00 | 0.00 | 99 | 1010.7 |
| 20260505074825 | 66 | 68 | 0.0 | 2.0 | 0.00 | 0.00 | 0.00 | 99 | 1010.8 |
| 20260505072742 | 66 | 45 | 0.0 | 0.0 | 0.00 | 0.00 | 0.00 | 99 | 1010.7 |
| 20260505072230 | 66 | 68 | 0.0 | 0.0 | 0.00 | 0.00 | 0.00 | 99 | 1010.7 |
| 20260505071720 | 66 | 68 | 0.0 | 0.0 | 0.00 | 0.00 | 0.00 | 99 | 1010.8 |
| 20260505071211 | 66 | 158 | 0.0 | 0.0 | 0.00 | 0.00 | 0.00 | 99 | 1010.7 |
| 20260505070658 | 66 | 113 | 0.0 | 0.0 | 0.00 | 0.00 | 0.00 | 99 | 1010.7 |
| 20260505070149 | 66 | 113 | 0.0 | 0.0 | 0.00 | 0.00 | 0.00 | 99 | 1010.8 |
| 20260505065130 | 66 | 90 | 0.0 | 0.0 | 0.00 | 0.00 | 0.00 | 99 | 1010.5 |
| 20260505064115 | 66 | 68 | 0.0 | 2.0 | 0.00 | 0.00 | 0.00 | 99 | 1010.8 |
| 20260505063601 | 66 | 135 | 0.0 | 0.0 | 0.00 | 0.00 | 0.00 | 99 | 1010.8 |
| 20260505063051 | 66 | 90 | 0.0 | 0.0 | 0.00 | 0.00 | 0.00 | 99 | 1011.0 |
| 20260505062540 | 66 | 113 | 0.0 | 0.0 | 0.00 | 0.00 | 0.00 | 99 | 1011.0 |
| 20260505061520 | 66 | 90 | 0.0 | 2.0 | 0.00 | 0.00 | 0.00 | 99 | 1011.0 |
| 20260505061016 | 66 | 180 | 0.0 | 2.0 | 0.00 | 0.00 | 0.00 | 99 | 1011.0 |
| 20260505060500 | 66 | 135 | 0.0 | 2.0 | 0.00 | 0.00 | 0.00 | 99 | 1011.0 |
| 20260505055440 | 66 | 113 | 0.0 | 0.0 | 0.00 | 0.00 | 0.00 | 99 | 1011.2 |
| 20260505054417 | 66 | 45 | 0.0 | 0.0 | 0.00 | 0.00 | 0.00 | 99 | 1011.0 |
| 20260505053909 | 66 | 135 | 0.0 | 0.0 | 0.00 | 0.00 | 0.00 | 99 | 1011.1 |
| 20260505053358 | 66 | 23 | 0.0 | 0.0 | 0.00 | 0.00 | 0.00 | 99 | 1011.2 |
| 20260505052847 | 67 | 135 | 0.0 | 0.0 | 0.00 | 0.00 | 0.00 | 98 | 1011.2 |
| 20260505052341 | 67 | 45 | 0.0 | 0.0 | 0.00 | 0.00 | 0.00 | 98 | 1011.2 |
| 20260505051320 | 67 | 158 | 0.0 | 0.0 | 0.00 | 0.00 | 0.00 | 98 | 1011.1 |
| 20260505050811 | 67 | 158 | 0.0 | 0.0 | 0.00 | 0.00 | 0.00 | 98 | 1011.2 |
| 20260505050301 | 67 | 45 | 0.0 | 0.0 | 0.00 | 0.00 | 0.00 | 98 | 1010.9 |
| 20260505041626 | 67 | 68 | 0.0 | 0.0 | 0.00 | 0.00 | 0.00 | 98 | 1011.2 |
| 20260505041121 | 67 | 180 | 0.0 | 0.0 | 0.00 | 0.00 | 0.00 | 98 | 1011.2 |
| 20260505040054 | 67 | 45 | 0.0 | 0.0 | 0.00 | 0.00 | 0.00 | 97 | 1011.2 |
| 20260505035547 | 67 | 45 | 0.0 | 2.0 | 0.00 | 0.00 | 0.00 | 97 | 1011.0 |
| 20260505035036 | 67 | 23 | 0.0 | 2.0 | 0.00 | 0.00 | 0.00 | 97 | 1011.0 |
| 20260505034528 | 67 | 158 | 0.0 | 0.0 | 0.00 | 0.00 | 0.00 | 97 | 1011.0 |
| 20260505034020 | 67 | 248 | 0.0 | 2.0 | 0.00 | 0.00 | 0.00 | 97 | 1011.1 |
| 20260505033506 | 67 | 90 | 0.0 | 4.0 | 0.00 | 0.00 | 0.00 | 97 | 1011.0 |
| 20260505032957 | 67 | 135 | 0.0 | 4.0 | 0.00 | 0.00 | 0.00 | 97 | 1011.2 |
| 20260505031427 | 66 | 68 | 0.0 | 0.0 | 0.00 | 0.00 | 0.00 | 96 | 1011.4 |
| 20260505030920 | 66 | 68 | 0.0 | 0.0 | 0.00 | 0.00 | 0.00 | 96 | 1011.3 |
| 20260505030407 | 66 | 338 | 0.0 | 0.0 | 0.00 | 0.00 | 0.00 | 96 | 1011.5 |
| 20260505025854 | 66 | 90 | 0.0 | 0.0 | 0.00 | 0.00 | 0.00 | 96 | 1011.3 |
| 20260505025345 | 66 | 68 | 0.0 | 0.0 | 0.00 | 0.00 | 0.00 | 96 | 1011.2 |
| 20260505024323 | 66 | 68 | 0.0 | 0.0 | 0.00 | 0.00 | 0.00 | 96 | 1011.1 |
| 20260505022754 | 66 | 113 | 0.0 | 4.0 | 0.00 | 0.00 | 0.00 | 95 | 1011.0 |
| 20260505022244 | 66 | 90 | 0.0 | 4.0 | 0.00 | 0.00 | 0.00 | 95 | 1010.9 |
| 20260505021735 | 66 | 113 | 0.0 | 2.0 | 0.00 | 0.00 | 0.00 | 95 | 1011.0 |
| 20260505021224 | 66 | 180 | 0.0 | 0.0 | 0.00 | 0.00 | 0.00 | 95 | 1010.7 |
| 20260505020714 | 67 | 113 | 0.0 | 4.0 | 0.00 | 0.00 | 0.00 | 94 | 1010.9 |
| 20260505020204 | 67 | 90 | 0.0 | 8.0 | 0.00 | 0.00 | 0.00 | 94 | 1010.7 |
| 20260505015655 | 67 | 23 | 0.0 | 8.0 | 0.00 | 0.00 | 0.00 | 94 | 1010.8 |
| 20260505015144 | 67 | 68 | 0.0 | 2.0 | 0.00 | 0.00 | 0.00 | 94 | 1010.6 |
| 20260505014634 | 67 | 248 | 0.0 | 4.0 | 0.00 | 0.00 | 0.00 | 94 | 1010.5 |
| 20260505014126 | 67 | 90 | 0.0 | 4.0 | 0.00 | 0.00 | 0.00 | 94 | 1010.6 |
| 20260505013613 | 67 | 113 | 0.0 | 4.0 | 0.00 | 0.00 | 0.00 | 94 | 1010.3 |
| 20260505013101 | 67 | 68 | 0.0 | 4.0 | 0.00 | 0.00 | 0.00 | 93 | 1010.5 |
| 20260505012042 | 67 | 113 | 0.0 | 4.0 | 0.00 | 0.00 | 0.00 | 93 | 1010.7 |
| 20260505011024 | 67 | 90 | 0.0 | 2.0 | 0.00 | 0.00 | 0.00 | 93 | 1010.3 |
| 20260505010511 | 67 | 135 | 0.0 | 2.0 | 0.00 | 0.00 | 0.00 | 93 | 1010.7 |
| 20260505005451 | 67 | 90 | 0.0 | 4.0 | 0.00 | 0.00 | 0.00 | 92 | 1010.5 |
| 20260505004943 | 67 | 45 | 0.0 | 4.0 | 0.00 | 0.00 | 0.00 | 91 | 1010.5 |
| 20260505004432 | 66 | 90 | 1.0 | 4.0 | 0.00 | 0.00 | 0.00 | 91 | 1010.4 |
| 20260505003922 | 66 | 113 | 0.0 | 2.0 | 0.00 | 0.00 | 0.00 | 90 | 1010.3 |
| 20260505003412 | 66 | 113 | 0.0 | 4.0 | 0.00 | 0.00 | 0.00 | 90 | 1010.4 |
| 20260505002904 | 66 | 68 | 0.0 | 4.0 | 0.00 | 0.00 | 0.00 | 89 | 1010.4 |
| 20260505002353 | 66 | 113 | 0.0 | 2.0 | 0.00 | 0.00 | 0.00 | 88 | 1010.2 |
| 20260505001842 | 66 | 113 | 0.0 | 2.0 | 0.00 | 0.00 | 0.00 | 87 | 1010.2 |
| 20260505000822 | 65 | 113 | 0.0 | 0.0 | 0.00 | 0.00 | 0.00 | 86 | 1010.3 |
| 20260505000313 | 65 | 113 | 0.0 | 0.0 | 0.00 | 0.00 | 0.00 | 86 | 1010.2 |
| 20260504235802 | 65 | 113 | 0.0 | 0.0 | 0.00 | 0.00 | 0.00 | 86 | 1010.2 |
| 20260504234739 | 65 | 113 | 0.0 | 0.0 | 0.00 | 0.00 | 0.00 | 85 | 1010.1 |
| 20260504233722 | 64 | 135 | 0.0 | 0.0 | 0.00 | 0.00 | 0.00 | 85 | 1010.1 |
| 20260504232702 | 65 | 113 | 0.0 | 0.0 | 0.00 | 0.00 | 0.00 | 84 | 1009.8 |
| 20260504232149 | 65 | 113 | 0.0 | 0.0 | 0.00 | 0.00 | 0.00 | 84 | 1009.6 |
| 20260504231640 | 65 | 113 | 0.0 | 0.0 | 0.00 | 0.00 | 0.00 | 84 | 1009.6 |
| 20260504230623 | 65 | 68 | 0.0 | 0.0 | 0.00 | 0.00 | 0.00 | 83 | 1009.6 |
| 20260504230110 | 65 | 135 | 0.0 | 0.0 | 0.00 | 0.00 | 0.00 | 84 | 1009.5 |
| 20260504225600 | 65 | 135 | 0.0 | 0.0 | 0.00 | 0.00 | 0.00 | 84 | 1009.5 |
| 20260504225053 | 65 | 135 | 0.0 | 0.0 | 0.00 | 0.00 | 0.00 | 84 | 1009.5 |
| 20260504224539 | 65 | 135 | 0.0 | 0.0 | 0.00 | 0.00 | 0.00 | 84 | 1009.5 |
| 20260504224030 | 65 | 113 | 0.0 | 0.0 | 0.00 | 0.00 | 0.00 | 84 | 1009.3 |
| 20260504223520 | 65 | 135 | 0.0 | 0.0 | 0.00 | 0.00 | 0.00 | 84 | 1009.4 |
| 20260504223008 | 65 | 135 | 0.0 | 0.0 | 0.00 | 0.00 | 0.00 | 84 | 1009.3 |
| 20260504222502 | 64 | 135 | 0.0 | 0.0 | 0.00 | 0.00 | 0.00 | 84 | 1009.3 |
| 20260504221437 | 64 | 135 | 0.0 | 0.0 | 0.00 | 0.00 | 0.00 | 83 | 1009.3 |
| 20260504220928 | 65 | 135 | 0.0 | 0.0 | 0.00 | 0.00 | 0.00 | 83 | 1009.3 |
| 20260504220417 | 64 | 135 | 0.0 | 0.0 | 0.00 | 0.00 | 0.00 | 82 | 1009.1 |
| 20260504214847 | 65 | 158 | 0.0 | 0.0 | 0.00 | 0.00 | 0.00 | 80 | 1009.1 |
| 20260504214339 | 66 | 158 | 0.0 | 0.0 | 0.00 | 0.00 | 0.00 | 78 | 1008.8 |
| 20260504213830 | 67 | 135 | 0.0 | 0.0 | 0.00 | 0.00 | 0.00 | 77 | 1008.9 |
| 20260504213318 | 67 | 158 | 0.0 | 0.0 | 0.00 | 0.00 | 0.00 | 76 | 1008.9 |
| 20260504212808 | 68 | 135 | 0.0 | 0.0 | 0.00 | 0.00 | 0.00 | 74 | 1008.8 |
| 20260504212258 | 68 | 113 | 0.0 | 0.0 | 0.00 | 0.00 | 0.00 | 74 | 1008.7 |
| 20260504211748 | 68 | 158 | 0.0 | 0.0 | 0.00 | 0.00 | 0.00 | 74 | 1008.8 |
| 20260504211243 | 69 | 135 | 0.0 | 0.0 | 0.00 | 0.00 | 0.00 | 72 | 1008.5 |
| 20260504210731 | 70 | 158 | 0.0 | 0.0 | 0.00 | 0.00 | 0.00 | 70 | 1008.8 |
| 20260504210220 | 71 | 90 | 0.0 | 0.0 | 0.00 | 0.00 | 0.00 | 69 | 1008.9 |
| 20260504205709 | 72 | 158 | 0.0 | 0.0 | 0.00 | 0.00 | 0.00 | 67 | 1008.6 |
| 20260504205158 | 73 | 338 | 0.0 | 0.0 | 0.00 | 0.00 | 0.00 | 65 | 1008.6 |
| 20260504203628 | 74 | 90 | 0.0 | 2.0 | 0.00 | 0.00 | 0.00 | 62 | 1008.6 |
| 20260504203121 | 75 | 135 | 0.0 | 2.0 | 0.00 | 0.00 | 0.00 | 61 | 1008.7 |
| 20260504202610 | 75 | 0 | 0.0 | 4.0 | 0.00 | 0.00 | 0.00 | 62 | 1008.7 |
| 20260504202055 | 74 | 113 | 0.0 | 4.0 | 0.00 | 0.00 | 0.00 | 61 | 1008.8 |
| 20260504201549 | 74 | 90 | 0.0 | 2.0 | 0.00 | 0.00 | 0.00 | 62 | 1008.8 |
| 20260504201036 | 75 | 23 | 0.0 | 2.0 | 0.00 | 0.00 | 0.00 | 61 | 1008.8 |
| 20260504200525 | 75 | 68 | 0.0 | 4.0 | 0.00 | 0.00 | 0.00 | 61 | 1009.2 |
| 20260504200016 | 75 | 113 | 0.0 | 4.0 | 0.00 | 0.00 | 0.00 | 61 | 1009.0 |
| 20260504195508 | 75 | 135 | 0.0 | 4.0 | 0.00 | 0.00 | 0.00 | 62 | 1008.9 |
| 20260504194959 | 77 | 113 | 0.0 | 4.0 | 0.00 | 0.00 | 0.00 | 60 | 1008.9 |
| 20260504194448 | 77 | 45 | 0.0 | 4.0 | 0.00 | 0.00 | 0.00 | 58 | 1009.2 |
| 20260504193937 | 78 | 0 | 0.0 | 2.0 | 0.00 | 0.00 | 0.00 | 56 | 1009.1 |
| 20260504192918 | 78 | 45 | 0.0 | 2.0 | 0.00 | 0.00 | 0.00 | 54 | 1009.1 |
| 20260504192406 | 78 | 338 | 0.0 | 2.0 | 0.00 | 0.00 | 0.00 | 56 | 1009.2 |
| 20260504191854 | 78 | 0 | 0.0 | 2.0 | 0.00 | 0.00 | 0.00 | 56 | 1009.2 |
| 20260504190323 | 79 | 338 | 0.0 | 0.0 | 0.00 | 0.00 | 0.00 | 55 | 1009.4 |
| 20260504185812 | 79 | 113 | 0.0 | 0.0 | 0.00 | 0.00 | 0.00 | 53 | 1009.5 |
| 20260504185305 | 79 | 68 | 0.0 | 2.0 | 0.00 | 0.00 | 0.00 | 52 | 1009.4 |
| 20260504184755 | 78 | 338 | 0.0 | 2.0 | 0.00 | 0.00 | 0.00 | 54 | 1009.5 |
| 20260504184247 | 78 | 23 | 0.0 | 0.0 | 0.00 | 0.00 | 0.00 | 55 | 1009.6 |
| 20260504183734 | 78 | 90 | 0.0 | 2.0 | 0.00 | 0.00 | 0.00 | 55 | 1009.5 |
| 20260504183225 | 78 | 338 | 0.0 | 4.0 | 0.00 | 0.00 | 0.00 | 54 | 1009.5 |
| 20260504182212 | 78 | 315 | 0.0 | 2.0 | 0.00 | 0.00 | 0.00 | 52 | 1009.7 |
| 20260504181655 | 78 | 293 | 0.0 | 0.0 | 0.00 | 0.00 | 0.00 | 53 | 1009.8 |
| 20260504180637 | 78 | 315 | 0.0 | 2.0 | 0.00 | 0.00 | 0.00 | 51 | 1009.8 |
| 20260504180128 | 78 | 338 | 0.0 | 2.0 | 0.00 | 0.00 | 0.00 | 53 | 1010.1 |
| 20260504175613 | 78 | 68 | 0.0 | 4.0 | 0.00 | 0.00 | 0.00 | 52 | 1010.3 |
| 20260504175101 | 78 | 0 | 0.0 | 4.0 | 0.00 | 0.00 | 0.00 | 53 | 1010.2 |
| 20260504174552 | 77 | 23 | 0.0 | 4.0 | 0.00 | 0.00 | 0.00 | 55 | 1010.1 |
| 20260504173535 | 78 | 338 | 0.0 | 2.0 | 0.00 | 0.00 | 0.00 | 53 | 1010.4 |